Retour au catalogue

FENGYUN 1C DEB

ActifSSO
NORAD 29776·DEBRIS·🇨🇳 China

Lancé May 10, 1999 depuis Taiyuan Satellite Launch Center

Loading…

Prochains Passages (prochaines 24 heures)

TLE

FraisSource: Space-Track

Époque: Sep 14, 2026, 12:32 UTC

1 29776U 99025BS  26257.52253008  .00000255  00000-0  17472-3 0  9999
2 29776  98.7480 281.0247 0023196 210.8792 305.4194 14.07909279  9602

Suivez FENGYUN 1C DEB en temps réel avec AllMySat

Download on the App Store